Location: Vigo di Fassa
(46.4167°N, 11.6667°E)
Time: 18:39:29
(UTC+00:00)

Cosmos 2322 Rocket - Pass Details

Date: 03 March 2021
Orbit: 832 x 852 km, 71.0° (Epoch: 15 April)

Event Time Altitude Azimuth Distance (km) Brightness Sun altitude
Rises 19:07:43 0° 235° (SW) 3,367 5.9 -22.2°
Reaches altitude 10° 19:10:23 10° 245° (WSW) 2,438 5.3 -22.7°
Maximum altitude 19:15:22 32° 308° (NW) 1,393 3.9 -23.5°
Drops below altitude 10° 19:20:24 10° 12° (NNE) 2,457 4.7 -24.3°
Sets 19:23:07 0° 22° (NNE) 3,398 5.3 -24.8°
